This is the latest recevied weather packets stored in our database for station/object DL9TPA-1. If no packets are shown the sender has not sent any weather packets the latest 10 day(s).
| Time | Temp. | Humidity | Pressure | Rain* | Wind** | Luminosity | Snow |
|---|---|---|---|---|---|---|---|
| 1778027475 | 11.67° C | 98% | 1004.5 hPa | 0 mm | - | - | - |
| 1778026873 | 11.67° C | 98% | 1004.6 hPa | 0 mm | - | - | - |
| 1778026269 | 11.67° C | 97% | 1004.7 hPa | 0 mm | - | - | - |
| 1778025670 | 11.67° C | 97% | 1004.9 hPa | 0 mm | - | - | - |
| 1778025065 | 11.67° C | 97% | 1004.9 hPa | 0 mm | - | - | - |
| 1778024463 | 11.67° C | 97% | 1004.8 hPa | 0 mm | - | - | - |
| 1778023861 | 11.67° C | 97% | 1005.1 hPa | 0.25 mm | - | - | - |
| 1778023259 | 11.67° C | 97% | 1005.1 hPa | 0.25 mm | - | - | - |
| 1778022659 | 11.67° C | 97% | 1005.1 hPa | 0.51 mm | - | - | - |
| 1778022055 | 11.67° C | 97% | 1005 hPa | 1.02 mm | - | - | - |
| 1778021455 | 11.67° C | 97% | 1005 hPa | 2.03 mm | - | - | - |
| 1778020852 | 11.67° C | 97% | 1005 hPa | 3.81 mm | - | - | - |
| 1778020248 | 11.67° C | 97% | 1005.1 hPa | 3.81 mm | - | - | - |
| 1778019647 | 11.67° C | 96% | 1004.5 hPa | 3.81 mm | - | - | - |
| 1778019047 | 11.67° C | 97% | 1004.7 hPa | 3.56 mm | - | - | - |
| 1778018445 | 11.67° C | 97% | 1005 hPa | 3.05 mm | - | - | - |
| 1778017842 | 11.67° C | 96% | 1005.4 hPa | 2.03 mm | - | - | - |
| 1778017240 | 12.22° C | 96% | 1005.8 hPa | 0.25 mm | - | - | - |
| 1778016638 | 12.22° C | 96% | 1005.8 hPa | 0 mm | - | - | - |
| 1778016035 | 12.22° C | 95% | 1006 hPa | 2.54 mm | - | - | - |
| 1778015434 | 12.22° C | 95% | 1006.4 hPa | 3.05 mm | - | - | - |
| 1778014833 | 12.22° C | 94% | 1006.5 hPa | 3.81 mm | - | - | - |
| 1778014229 | 12.78° C | 94% | 1006.6 hPa | 4.06 mm | - | - | - |
| 1778013629 | 12.78° C | 94% | 1006.6 hPa | 4.06 mm | - | - | - |
| 1778013027 | 12.78° C | 92% | 1006.5 hPa | 4.06 mm | - | - | - |
* Rain latest hour (hover to see other rain measurements)
** Current wind speed in m/s (hover to see current wind gust speed)